Weather History for Faribault, MN

Change the Weather History Date:

Thursday, October 18, 2012

  Actual Average Record
Temperature  
Mean Temperature 42 °F -  
Max Temperature 46 °F 57 °F 86 °F (1950)
Min Temperature 37 °F 35 °F 19 °F (1989)
Degree Days  
Heating Degree Days 24    
Moisture  
Dew Point 42 °F    
Average Humidity 97    
Maximum Humidity 100    
Minimum Humidity 87    
Precipitation  
Precipitation 0.02 in - - ()
Sea Level Pressure  
Sea Level Pressure 29.27 in    
Wind  
Wind Speed 6 mph (West)    
Max Wind Speed 12 mph    
Max Gust Speed 16 mph    
Visibility 8 miles    
Events Rain    
Averages and records for this station are not official NWS values.
T = Trace of Precipitation, MM = Missing Value Source: NWS Daily Summary

Daily Weather History Graph

Daily Weather History Graph

Search for Another Location

Airport:

Trip Planner

Search our weather history database for the weather conditions in past years. The results will help you decide how hot, cold, wet, or windy it might be!

Date:

Astronomy

Oct. 18, 2012 Rise Set
Actual Time 7:32 AM CDT 6:23 PM CDT
Civil Twilight 7:03 AM CDT 6:52 PM CDT
Nautical Twilight 6:29 AM CDT 7:26 PM CDT
Astronomical Twilight 5:55 AM CDT 7:59 PM CDT
Moon 11:23 AM CDT (10/18) 8:50 PM CDT (10/18)
Length of Visible Light 11h 49m
Length of Day
10h 50m
Waxing Crescent, 14% of the Moon is Illuminated
Oct 18
Waxing Crescent
Oct 21
First Quarter
Oct 29
Full
Nov 6
Last Quarter
Nov 13
New

Hourly Weather History & Observations

Time (CDT) Temp. Windchill Dew Point Humidity Pressure Visibility Wind Dir Wind Speed Gust Speed Precip Events Conditions
12:14 AM 42.8 °F 37.0 °F 42.8 °F 100% 29.29 in 10.0 mi WSW 10.4 mph - N/A   Overcast
12:34 AM 42.8 °F 37.5 °F 42.8 °F 100% 29.29 in 10.0 mi West 9.2 mph - N/A   Overcast
12:54 AM 42.8 °F 38.0 °F 42.8 °F 100% 29.28 in 2.5 mi West 8.1 mph 16.1 mph N/A   Overcast
1:14 AM 42.8 °F 36.6 °F 42.8 °F 100% 29.28 in 3.0 mi WSW 11.5 mph - N/A   Overcast
1:34 AM 42.8 °F 37.5 °F 42.8 °F 100% 29.27 in 2.0 mi WSW 9.2 mph - N/A   Overcast
1:54 AM 42.8 °F 38.0 °F 42.8 °F 100% 29.26 in 2.0 mi WSW 8.1 mph - N/A   Overcast
2:14 AM 42.8 °F 37.5 °F 42.8 °F 100% 29.26 in 2.5 mi West 9.2 mph - N/A   Overcast
2:34 AM 42.8 °F 37.5 °F 42.8 °F 100% 29.26 in 2.5 mi West 9.2 mph - N/A   Overcast
2:54 AM 42.8 °F 37.0 °F 42.8 °F 100% 29.26 in 2.5 mi West 10.4 mph - N/A   Overcast
3:15 AM 42.8 °F 37.5 °F 42.8 °F 100% 29.26 in 4.0 mi West 9.2 mph - N/A   Overcast
3:34 AM 42.8 °F 36.6 °F 42.8 °F 100% 29.25 in 7.0 mi West 11.5 mph - N/A   Overcast
3:54 AM 42.8 °F 37.5 °F 42.8 °F 100% 29.24 in 5.0 mi WSW 9.2 mph - N/A   Overcast
4:13 AM 42.8 °F 37.5 °F 42.8 °F 100% 29.24 in 7.0 mi WSW 9.2 mph - N/A   Overcast
4:34 AM 42.8 °F 38.0 °F 42.8 °F 100% 29.23 in 10.0 mi West 8.1 mph - N/A   Overcast
4:54 AM 42.8 °F 38.0 °F 42.8 °F 100% 29.22 in 7.0 mi WSW 8.1 mph - N/A   Overcast
5:14 AM 42.8 °F 37.5 °F 42.8 °F 100% 29.22 in 7.0 mi West 9.2 mph - N/A   Light Drizzle
5:34 AM 42.8 °F 37.0 °F 42.8 °F 100% 29.22 in 5.0 mi West 10.4 mph - N/A   Light Drizzle
5:54 AM 42.8 °F 38.0 °F 42.8 °F 100% 29.21 in 7.0 mi WSW 8.1 mph - 0.01 in   Drizzle
6:34 AM 42.8 °F 38.0 °F 42.8 °F 100% 29.21 in 4.0 mi WSW 8.1 mph - N/A   Light Drizzle
6:54 AM 42.8 °F 37.0 °F 42.8 °F 100% 29.20 in 7.0 mi WSW 10.4 mph - N/A   Overcast
7:14 AM 42.8 °F 36.6 °F 41.0 °F 93% 29.21 in 10.0 mi West 11.5 mph - N/A   Overcast
7:34 AM 41.0 °F 35.8 °F 41.0 °F 100% 29.20 in 10.0 mi WSW 8.1 mph - N/A   Overcast
7:54 AM 41.0 °F 36.4 °F 41.0 °F 100% 29.20 in 5.0 mi WSW 6.9 mph - N/A   Overcast
8:14 AM 41.0 °F 37.1 °F 41.0 °F 100% 29.21 in 10.0 mi WSW 5.8 mph - N/A   Light Drizzle
8:34 AM 41.0 °F 36.4 °F 41.0 °F 100% 29.21 in 5.0 mi WSW 6.9 mph - N/A Rain Rain
8:54 AM 41.0 °F 34.7 °F 41.0 °F 100% 29.20 in 10.0 mi SW 10.4 mph - N/A   Overcast
9:14 AM 42.8 °F 38.0 °F 41.0 °F 93% 29.20 in 10.0 mi SW 8.1 mph - N/A   Overcast
9:34 AM 42.8 °F 38.6 °F 41.0 °F 93% 29.19 in 10.0 mi WSW 6.9 mph - N/A   Overcast
9:54 AM 42.8 °F 39.3 °F 41.0 °F 93% 29.20 in 5.0 mi SW 5.8 mph - N/A   Overcast
10:14 AM 42.8 °F 38.6 °F 41.0 °F 93% 29.19 in 5.0 mi SW 6.9 mph - N/A   Overcast
10:34 AM 42.8 °F 39.3 °F 42.8 °F 100% 29.19 in 10.0 mi SSW 5.8 mph - N/A   Overcast
10:54 AM 42.8 °F 41.1 °F 41.0 °F 93% 29.19 in 10.0 mi WSW 3.5 mph - N/A   Overcast
11:14 AM 42.8 °F 39.3 °F 42.8 °F 100% 29.19 in 10.0 mi SSW 5.8 mph - N/A   Overcast
11:34 AM 42.8 °F - 42.8 °F 100% 29.20 in 10.0 mi Calm Calm - N/A   Overcast
11:54 AM 42.8 °F - 42.8 °F 100% 29.20 in 7.0 mi Calm Calm - N/A   Overcast
12:14 PM 44.6 °F - 42.8 °F 93% 29.20 in 10.0 mi Calm Calm - N/A   Overcast
12:34 PM 44.6 °F - 42.8 °F 93% 29.21 in 10.0 mi Calm Calm - N/A   Overcast
12:54 PM 44.6 °F - 42.8 °F 93% 29.21 in 10.0 mi Calm Calm - N/A   Overcast
1:14 PM 44.6 °F - 42.8 °F 93% 29.22 in 10.0 mi Calm Calm - 0.01 in   Overcast
1:35 PM 44.6 °F - 41.0 °F 87% 29.22 in 10.0 mi Calm Calm - 0.01 in   Overcast
1:54 PM 44.6 °F - 41.0 °F 87% 29.23 in 10.0 mi Calm Calm - 0.01 in   Overcast
2:14 PM 44.6 °F - 41.0 °F 87% 29.24 in 10.0 mi Calm Calm - N/A   Overcast
2:33 PM 44.6 °F - 41.0 °F 87% 29.25 in 10.0 mi Calm Calm - N/A Rain Light Rain
2:54 PM 44.6 °F 43.1 °F 42.8 °F 93% 29.26 in 7.0 mi NW 3.5 mph - N/A   Drizzle
3:14 PM 44.6 °F - 42.8 °F 93% 29.26 in 7.0 mi Calm Calm - N/A   Overcast
3:34 PM 44.6 °F 43.1 °F 42.8 °F 93% 29.27 in 10.0 mi North 3.5 mph - N/A   Overcast
3:54 PM 44.6 °F 43.1 °F 42.8 °F 93% 29.28 in 7.0 mi North 3.5 mph - N/A   Overcast
4:14 PM 44.6 °F 43.1 °F 42.8 °F 93% 29.29 in 10.0 mi North 3.5 mph - N/A   Overcast
4:34 PM 44.6 °F 43.1 °F 42.8 °F 93% 29.30 in 10.0 mi NNW 3.5 mph - N/A   Overcast
4:54 PM 44.6 °F 43.1 °F 42.8 °F 93% 29.30 in 10.0 mi NNW 3.5 mph - N/A   Scattered Clouds
5:14 PM 46.4 °F 43.5 °F 42.8 °F 87% 29.31 in 10.0 mi North 5.8 mph - N/A   Mostly Cloudy
5:34 PM 46.4 °F 45.2 °F 42.8 °F 87% 29.31 in 10.0 mi NNW 3.5 mph - N/A   Overcast
5:54 PM 46.4 °F 44.3 °F 42.8 °F 87% 29.31 in 10.0 mi NW 4.6 mph - N/A   Overcast
6:14 PM 44.6 °F - 42.8 °F 93% 29.32 in 10.0 mi Calm Calm - N/A   Mostly Cloudy
6:34 PM 42.8 °F - 41.0 °F 93% 29.33 in 10.0 mi Calm Calm - N/A   Clear
6:54 PM 39.2 °F - 39.2 °F 100% 29.33 in 10.0 mi Calm Calm - N/A   Scattered Clouds
7:14 PM 39.2 °F - 39.2 °F 100% 29.34 in 10.0 mi Calm Calm - N/A   Mostly Cloudy
7:34 PM 39.2 °F - 39.2 °F 100% 29.34 in 10.0 mi Calm Calm - N/A   Overcast
7:54 PM 41.0 °F - 41.0 °F 100% 29.35 in 10.0 mi Calm Calm - N/A   Mostly Cloudy
8:14 PM 41.0 °F - 41.0 °F 100% 29.36 in 10.0 mi Calm Calm - N/A   Scattered Clouds
8:34 PM 42.8 °F - 42.8 °F 100% 29.36 in 10.0 mi Calm Calm - N/A   Mostly Cloudy
8:54 PM 42.8 °F - 42.8 °F 100% 29.37 in 10.0 mi Calm Calm - N/A   Overcast
9:14 PM 44.6 °F - 42.8 °F 93% 29.37 in 10.0 mi Calm Calm - N/A   Overcast
9:34 PM 44.6 °F - 42.8 °F 93% 29.37 in 10.0 mi Calm Calm - N/A   Overcast
9:54 PM 42.8 °F - 42.8 °F 100% 29.37 in 10.0 mi Calm Calm - N/A   Mostly Cloudy
10:15 PM 42.8 °F - 42.8 °F 100% 29.37 in 10.0 mi Calm Calm - N/A   Mostly Cloudy
10:34 PM 41.0 °F - 41.0 °F 100% 29.37 in 10.0 mi Calm Calm - N/A   Scattered Clouds
10:54 PM 42.8 °F - 41.0 °F 93% 29.37 in 10.0 mi Calm Calm - N/A   Clear
11:14 PM 41.0 °F - 41.0 °F 100% 29.37 in 10.0 mi Calm Calm - N/A   Clear
11:34 PM 37.4 °F - 37.4 °F 100% 29.39 in 5.0 mi Calm Calm - N/A   Clear
11:55 PM 39.2 °F - 39.2 °F 100% 29.39 in 7.0 mi Calm Calm - N/A   Scattered Clouds